Flag Weather past 2 weeks in Tashkent, Uzbekistan

Now
52 °F

Passing clouds.


Feels Like: 51 °F
Forecast: 43 / 53 °F
Wind: 5 mph from East

Location: Tashkent

Current Time: Nov 23, 2014 at 2:13:26 PM

Latest Report: Nov 23, 2014 at 1:30 PM


Visibility: N/A

Pressure: 29.95 "Hg

Humidity: 35%

Dew point: 25 °F

Location of TashkentLocation

Historic Weather in Tashkent — Graph

°F

Tashkent temperature yesterday

Maximum temperature yesterday: 50 °F (at 12:30 PM)
Minimum temperature yesterday: 32 °F (at 7:00 AM)
Average temperature yesterday: 42 °F

Past Weeks' High & Low Weather Summary

 TemperatureHumidityPressure
High68 °F (Nov 17, 3:30 PM)100% (Nov 14, 7:30 AM)30.69 "Hg (Nov 14, 7:30 AM)
Low32 °F (Nov 9, 1:00 AM)23% (Nov 17, 3:30 PM)29.98 "Hg (Nov 23, 11:30 AM)
Average43 °F72%30.35 "Hg
* Reported Nov 8 12:00 Noon — Nov 23 12:30 PM, Tashkent, Weather by CustomWeather, © 2014

Note: Actual official high and low records may vary slightly from our data, if they occured in-between our weather recording intervals... More about our weather records

Advertising

Tashkent weather history for previous 24 hours

 ConditionsComfort  
Time TempWeatherWind HumidityBarometerVisibility
12:30 PM
Nov 23
52 °FPassing clouds.5 mph35%29.98 "HgN/A
12:00 PM52 °FPassing clouds.6 mph35%29.98 "HgN/A
11:30 AM52 °FSunny.9 mph32%29.98 "Hg10 mi
11:00 AM50 °FPassing clouds.3 mph40%30.01 "HgN/A
10:30 AM48 °FPassing clouds.3 mph40%30.01 "HgN/A
10:00 AM46 °FSunny.5 mph46%30.01 "Hg10 mi
9:30 AM45 °FPassing clouds.5 mph46%30.04 "HgN/A
9:00 AM43 °FSunny.9 mph49%30.01 "Hg10 mi
8:30 AM41 °FSunny.8 mph53%30.04 "Hg10 mi
8:00 AM43 °FPassing clouds.6 mph42%30.04 "HgN/A
7:30 AM41 °FSunny.8 mph49%30.04 "Hg10 mi
7:00 AM41 °FClear.10 mph49%30.04 "Hg10 mi
6:30 AM39 °FClear.8 mph52%30.04 "Hg10 mi
6:00 AM41 °FClear.13 mph45%30.04 "Hg10 mi
5:30 AM41 °FClear.12 mph45%30.07 "Hg10 mi
5:00 AM41 °FClear.8 mph45%30.07 "Hg10 mi
4:30 AM37 °FClear.8 mph56%30.07 "Hg10 mi
4:00 AM37 °FClear.7 mph56%30.07 "Hg10 mi
3:30 AM39 °FClear.7 mph56%30.07 "Hg10 mi
3:00 AM37 °FClear.7 mph65%30.09 "Hg10 mi
2:30 AM36 °FClear.7 mph65%30.09 "Hg10 mi
2:00 AM39 °FClear.8 mph61%30.09 "Hg10 mi
1:30 AM39 °FClear.3 mph65%30.12 "Hg10 mi
1:00 AM37 °FClear.6 mph81%30.12 "Hg10 mi
12:30 AM39 °FFog.5 mph70%30.15 "Hg2 mi
12:00 AM41 °FFog.5 mph76%30.15 "Hg2 mi
11:30 PM
Nov 22
39 °FFog.5 mph93%30.15 "Hg2 mi
11:00 PM39 °FFog.3 mph93%30.18 "Hg2 mi
10:30 PM39 °FFog.5 mph93%30.18 "Hg2 mi
10:00 PM37 °FFog.7 mph87%30.18 "Hg2 mi
9:30 PM41 °FFog.3 mph81%30.21 "Hg2 mi
9:00 PM43 °FFog.2 mph81%30.21 "Hg2 mi
8:30 PM41 °FFog.2 mph87%30.21 "Hg2 mi
8:00 PM41 °FFog.2 mph81%30.21 "Hg2 mi
7:30 PM43 °FClear.1 mph81%30.21 "Hg10 mi
7:00 PM45 °FClear.2 mph76%30.24 "Hg10 mi
6:30 PM45 °FClear.3 mph71%30.24 "Hg10 mi
6:00 PM46 °FClear.3 mph71%30.24 "Hg2 mi
5:30 PM46 °FClear.5 mph66%30.24 "Hg2 mi
5:00 PM48 °FClear.7 mph62%30.24 "Hg4 mi
4:30 PM48 °FClear.6 mph62%30.24 "Hg4 mi
4:00 PM50 °FClear.6 mph58%30.24 "Hg4 mi
3:30 PM50 °FClear.5 mph54%30.24 "Hg4 mi
3:00 PM50 °FClear.6 mph58%30.24 "Hg4 mi
2:30 PM50 °FClear.6 mph58%30.24 "Hg4 mi
2:00 PM50 °FClear.5 mph58%30.27 "Hg4 mi
Weather by CustomWeather, © 2014

See weather overviewHow to use our weather pages